PEGASUS DEB

Satellite information

Favourite Embed

Satellite Type and Status

DEBRISIN ORBIT

Key statistics

Satellite PEGASUS DEB at a glance.

Uptime

11312

Days in orbit

Revolutions

≈ 14.9

Per day

Orbit

LEO

Low Earth Orbit

Inclination

82.0

Latest

Satellite identification and parameters

Extended collection of information and parameters for PEGASUS DEB.

Object identification

Identified? True

Debris? True

Object name: PEGASUS DEB

International designator: 1994-029WD

Object number (NORAD): 24529

Object ID (CCSDS): 24529

Country: UNITED STATES OF AMERICA (US)

Current information (Y/N): Y

RCS size: SMALL

Orbital parameters

Period: 96.804 minutes

Inclination: 81.9755 deg

SMA: 6983.773 km

Apoapsis: 682.687 km

Periapsis: 528.589 km

RAAN: 171.0417 deg

Eccentricy: 0.0110326

Argument of periapsis: 174.8396 deg

Mean anomaly: 3.3991 deg

Mean motion: 14.87536361 rev/day

Mean motion (dot): 0.00002122 rev/day2

B* drag term: 0.0002065 1/REarth

Two-line elements (TLE)

Creation date: May 8, 2025, 3:01 a.m.

Reference frame: TEME

Reference center: EARTH

Epoch: May 7, 2025, 9 p.m. UTC

TLE line 0: 0 PEGASUS DEB

TLE line 1: 1 24529U 94029WD 25127.87538295 .00002122 00000-0 20650-3 0 9993

TLE line 2: 2 24529 81.9755 171.0417 0110326 174.8396 3.3991 14.87536361191988

Live tracking on map

Real-time ground track for satellite PEGASUS DEB.

In-orbit conjunctions

A list of the most updated potential collisions computed for object PEGASUS DEB.

Target Orbit TCA Probability of collision Miss distance Type
ORBVIEW 1 (MICROLAB) LEO 2025-04-17 09:41:02 0.0004363379 119.0 (m) PAYLOAD
CZ-4 DEB SSO 2025-02-08 22:58:21 0.001504112 31.0 (m) DEBRIS

Associated space launch

PEGASUS DEB was lifted into orbit during the mission ‘Pegasus HAPS | Space Test Experiments Platform 2 (STEP-2)’, on board a Pegasus HAPS space rocket.

The launch took place on May 19, 1994, 5:03 p.m. from Edwards Air Force Base.

For more information about the launch, click the button.

Launch to space Pegasus HAPS | Space Test Experiments Platform 2 (STEP-2)
Pegasus HAPS | Space Test Experiments Platform 2 (STEP-2)

Agency: N/A

Status: Launch Successful

Launch date: May 19, 1994, 5:03 p.m. UTC

Rocket: Pegasus HAPS

Launch pad: Edwards Air Force Base

Location: Air launch to orbit

...

Latest news about this satellite

There are no fresh news available about this satellite. Check back as we update our databases every day.


Newsletter sign-up

Weekly statistics, charts and insights to help you stay on top of the space industry.